AirNav   Air Wisconsin Up To $57,000 Bonus
 
 1207 users online  

WS39 Pinewood Air Park
Goodnow, Wisconsin, USA

GOING TO GOODNOW?


FAA INFORMATION EFFECTIVE 01 DECEMBER 2022

Location

FAA Identifier: WS39
Lat/Long: 45-41-57.8440N 089-39-44.5090W
45-41.964067N 089-39.741817W
45.6994011,-89.6623636
(estimated)
Elevation: 1560 ft. / 475 m (estimated)
Variation: 00W (1985)
From city: 1 mile NE of GOODNOW, WI
Time zone: UTC -6 (UTC -5 during Daylight Saving Time)
Zip code: 54529

Airport Operations

Airport use: Private use. Permission required prior to landing
Activation date: 05/1987
Control tower: no
ARTCC: MINNEAPOLIS CENTER
FSS: GREEN BAY FLIGHT SERVICE STATION
Attendance: UNATNDD
Wind indicator: yes
Segmented circle: no

Airport Communications

WX ASOS at RHI (9 nm SE): 126.825 (715-362-7980)
WX AWOS-3 at ARV (14 nm N): 121.125 (715-356-2417)
WX AWOS-3 at TKV (15 nm SW): 118.250 (715-453-5716)

Nearby radio navigation aids

VOR radial/distance  VOR name  Freq  Var
RHIr293/9.4RHINELANDER VOR/DME109.2002E

 
NDB name  Hdg/Dist  Freq  Var  ID
ARSHA340/4.727203WRH .-. ....
DOUGY163/8.623602WDO -.. ---

Airport Services

Runway Information

Runway 15/33

Dimensions: 2933 x 70 ft. / 894 x 21 m
Surface: turf
RUNWAY 15  RUNWAY 33
Traffic pattern: leftleft
Displaced threshold: 800 ft.no

Airport Ownership and Management from official FAA records

Ownership: Privately-owned
Owner: A. H. BROMANN
4726 LAKEWOOD RD
GOODNOW, WI 54529
Phone 715-282-5501
Manager: A. H. BROMANN
4726 LAKEWOOD RD
GOODNOW, WI 54529
Phone 715-282-5501

Airport Operational Statistics

Aircraft based on the field: 1
Single engine airplanes: 1
    

Additional Remarks

ARPT PLWD WINT MONTHS UPON REQ.
FOR CD CTC MINNEAPOLIS ARTCC AT 651-463-5588.

Instrument Procedures

There are no published instrument procedures at WS39.

Some nearby airports with instrument procedures:

KRHI - Rhinelander/Oneida County Airport (9 nm SE)
KARV - Lakeland Airport/Noble F. Lee Memorial Field (14 nm N)
KTKV - Tomahawk Regional Airport (15 nm SW)
KEGV - Eagle River Union Airport (22 nm NE)
D25 - Manitowish Waters Airport (27 nm N)
 
Loc | Ops | Rwys | IFR | FBO | Links
Com | Nav | Svcs | Stats | Notes
Area around WS39 (Pinewood Air Park)
 
Road maps at: MapQuest Bing Google
 
Aerial photo
No photo
 
Sectional chart

 
Airport distance calculator
Flying to Pinewood Air Park? Find the distance to fly.

From to WS39

Sunrise and sunset
Times for 08-Dec-2022
 Local
(UTC-6)
 Zulu
(UTC)
Morning civil twilight06:5412:54
Sunrise07:2813:28
Sunset16:1422:14
Evening civil twilight16:4822:48

Current date and time
Zulu (UTC)  08-Dec-2022 13:56:50
Local (UTC-6)  08-Dec-2022 07:56:50
 
METAR
KRHI 
8nm SE 
081253Z AUTO 00000KT 10SM CLR M16/M18 A3036 RMK AO2 SLP320 I1000 T11611183
KARV 
13nm N 
081335Z AUTO 00000KT 10SM CLR M15/M17 A3035 RMK AO2 T11491167
KTKV 
15nm SW 
081335Z AUTO 00000KT 10SM CLR M20/M22 A3038 RMK AO2 T12001225 PWINO
TAF
KRHI 
8nm SE 
081127Z 0812/0912 VRB03KT P6SM SKC FM081500 19006KT P6SM SCT025 FM090000 14003KT P6SM SKC FM091000 09003KT P6SM BKN100
NOTAMs
Click for the latest NOTAMs
NOTAMs are issued by the DoD/FAA and will open in a separate window not controlled by AirNav.

 

 
 

Would you like to see your business listed on this page?

 If your business provides an interesting product or service to pilots, flight crews, aircraft, or users of the Pinewood Air Park, you should consider listing it here.  To start the listing process, click on the button below
 
Add a business
 

Other Pages about Pinewood Air Park

Update a link
 
Copyright © AirNav, LLC. All rights reserved. Privacy Policy  Contact